Tabellarische Ansicht des 16.12.2019


Die einzelnen Werte des Tages

Uhrzeit Temperatur Luftdruck Luftfeuchte Wind Hi-Wind Taupunkt THW Index Wind Chill Heat Index Solar- strahlung Regen

00:00

5.9 C

1004.1 hpa

74 %

19.3 km/h aus 118

30.6 km/h aus S

1.7 C

1.9 C

2.2 C

5.7 C

0 W/m

0.00 mm

00:05

5.9 C

1004.1 hpa

75 %

19.3 km/h aus 114

29.0 km/h aus S

1.8 C

1.9 C

2.1 C

5.7 C

0 W/m

0.00 mm

00:10

5.8 C

1004.1 hpa

75 %

19.3 km/h aus 117

25.7 km/h aus S

1.7 C

1.8 C

2.1 C

5.6 C

0 W/m

0.00 mm

00:15

5.8 C

1004.1 hpa

75 %

19.3 km/h aus 117

27.4 km/h aus S

1.7 C

1.8 C

2.0 C

5.6 C

0 W/m

0.00 mm

00:20

5.7 C

1004.1 hpa

75 %

17.7 km/h aus 116

25.7 km/h aus S

1.6 C

1.9 C

2.2 C

5.5 C

0 W/m

0.00 mm

00:25

5.7 C

1004.1 hpa

76 %

20.9 km/h aus 115

29.0 km/h aus SSE

1.8 C

1.5 C

1.7 C

5.5 C

0 W/m

0.00 mm

00:30

5.7 C

1004.2 hpa

76 %

20.9 km/h aus 116

29.0 km/h aus S

1.8 C

1.4 C

1.7 C

5.4 C

0 W/m

0.00 mm

00:35

5.6 C

1004.2 hpa

76 %

20.9 km/h aus 117

25.7 km/h aus SSE

1.7 C

1.4 C

1.6 C

5.4 C

0 W/m

0.00 mm

00:40

5.6 C

1004.2 hpa

76 %

19.3 km/h aus 117

25.7 km/h aus S

1.7 C

1.5 C

1.7 C

5.3 C

0 W/m

0.00 mm

00:45

5.4 C

1004.1 hpa

77 %

19.3 km/h aus 117

25.7 km/h aus S

1.7 C

1.4 C

1.6 C

5.2 C

0 W/m

0.00 mm

00:50

5.4 C

1004.1 hpa

77 %

20.9 km/h aus 117

32.2 km/h aus S

1.7 C

1.2 C

1.4 C

5.2 C

0 W/m

0.00 mm

00:55

5.4 C

1004.1 hpa

77 %

17.7 km/h aus 114

24.1 km/h aus SSE

1.7 C

1.6 C

1.8 C

5.2 C

0 W/m

0.00 mm

01:00

5.3 C

1004.1 hpa

77 %

20.9 km/h aus 115

25.7 km/h aus S

1.6 C

1.1 C

1.3 C

5.1 C

0 W/m

0.00 mm

01:05

5.3 C

1004.1 hpa

77 %

19.3 km/h aus 117

25.7 km/h aus SSE

1.6 C

1.3 C

1.5 C

5.1 C

0 W/m

0.00 mm

01:10

5.3 C

1004.1 hpa

77 %

19.3 km/h aus 117

24.1 km/h aus S

1.6 C

1.3 C

1.5 C

5.1 C

0 W/m

0.00 mm

01:15

5.3 C

1004.0 hpa

77 %

19.3 km/h aus 117

25.7 km/h aus S

1.6 C

1.3 C

1.5 C

5.1 C

0 W/m

0.00 mm

01:20

5.3 C

1004.0 hpa

77 %

17.7 km/h aus 116

25.7 km/h aus SSE

1.6 C

1.5 C

1.7 C

5.1 C

0 W/m

0.00 mm

01:25

5.3 C

1004.0 hpa

77 %

19.3 km/h aus 115

27.4 km/h aus S

1.6 C

1.2 C

1.4 C

5.1 C

0 W/m

0.00 mm

01:30

5.3 C

1004.0 hpa

77 %

19.3 km/h aus 114

25.7 km/h aus S

1.6 C

1.3 C

1.5 C

5.1 C

0 W/m

0.00 mm

01:35

5.3 C

1004.0 hpa

77 %

17.7 km/h aus 116

24.1 km/h aus S

1.6 C

1.4 C

1.7 C

5.1 C

0 W/m

0.00 mm

01:40

5.2 C

1004.0 hpa

77 %

19.3 km/h aus 117

24.1 km/h aus S

1.5 C

1.1 C

1.3 C

5.0 C

0 W/m

0.00 mm

01:45

5.2 C

1003.8 hpa

77 %

19.3 km/h aus 117

24.1 km/h aus S

1.5 C

1.1 C

1.3 C

4.9 C

0 W/m

0.00 mm

01:50

5.2 C

1003.8 hpa

77 %

19.3 km/h aus 117

24.1 km/h aus S

1.5 C

1.1 C

1.3 C

4.9 C

0 W/m

0.00 mm

01:55

5.2 C

1003.8 hpa

77 %

20.9 km/h aus 116

29.0 km/h aus SSE

1.5 C

0.9 C

1.1 C

4.9 C

0 W/m

0.00 mm

02:00

5.2 C

1004.1 hpa

77 %

17.7 km/h aus 113

22.5 km/h aus SSE

1.5 C

1.3 C

1.5 C

4.9 C

0 W/m

0.00 mm

02:05

5.2 C

1004.1 hpa

77 %

17.7 km/h aus 116

22.5 km/h aus S

1.5 C

1.3 C

1.5 C

4.9 C

0 W/m

0.00 mm

02:10

5.1 C

1004.1 hpa

77 %

16.1 km/h aus 117

22.5 km/h aus SE

1.4 C

1.4 C

1.7 C

4.9 C

0 W/m

0.00 mm

02:15

5.0 C

1004.2 hpa

77 %

19.3 km/h aus 116

22.5 km/h aus SSE

1.3 C

0.9 C

1.1 C

4.8 C

0 W/m

0.00 mm

02:20

5.0 C

1004.2 hpa

77 %

17.7 km/h aus 115

22.5 km/h aus SSE

1.3 C

1.1 C

1.3 C

4.8 C

0 W/m

0.00 mm

02:25

4.9 C

1004.2 hpa

77 %

19.3 km/h aus 117

24.1 km/h aus SSE

1.2 C

0.8 C

1.1 C

4.7 C

0 W/m

0.00 mm

02:30

4.9 C

1004.2 hpa

77 %

17.7 km/h aus 112

20.9 km/h aus SSE

1.2 C

1.1 C

1.3 C

4.7 C

0 W/m

0.00 mm

02:35

4.9 C

1004.2 hpa

77 %

17.7 km/h aus 115

20.9 km/h aus SSE

1.2 C

1.0 C

1.2 C

4.7 C

0 W/m

0.00 mm

02:40

4.8 C

1004.2 hpa

78 %

19.3 km/h aus 117

22.5 km/h aus SSE

1.3 C

0.7 C

0.9 C

4.6 C

0 W/m

0.00 mm

02:45

4.9 C

1004.1 hpa

78 %

17.7 km/h aus 117

20.9 km/h aus SSE

1.4 C

1.1 C

1.2 C

4.7 C

0 W/m

0.00 mm

02:50

4.9 C

1004.1 hpa

78 %

19.3 km/h aus 117

22.5 km/h aus SE

1.4 C

0.8 C

1.0 C

4.7 C

0 W/m

0.00 mm

02:55

4.9 C

1004.1 hpa

78 %

19.3 km/h aus 116

22.5 km/h aus SSE

1.4 C

0.8 C

1.0 C

4.7 C

0 W/m

0.00 mm

03:00

4.9 C

1004.2 hpa

78 %

17.7 km/h aus 116

20.9 km/h aus SSE

1.4 C

1.1 C

1.3 C

4.8 C

0 W/m

0.00 mm

03:05

4.9 C

1004.2 hpa

78 %

17.7 km/h aus 114

22.5 km/h aus SSE

1.4 C

1.1 C

1.3 C

4.8 C

0 W/m

0.00 mm

03:10

4.9 C

1004.2 hpa

78 %

16.1 km/h aus 115

19.3 km/h aus SE

1.4 C

1.3 C

1.5 C

4.8 C

0 W/m

0.00 mm

03:15

4.9 C

1004.1 hpa

78 %

14.5 km/h aus 117

19.3 km/h aus SE

1.4 C

1.6 C

1.8 C

4.8 C

0 W/m

0.00 mm

03:20

4.9 C

1004.1 hpa

78 %

12.9 km/h aus 116

17.7 km/h aus SSE

1.4 C

1.8 C

2.0 C

4.7 C

0 W/m

0.00 mm

03:25

4.8 C

1004.1 hpa

78 %

14.5 km/h aus 117

17.7 km/h aus SE

1.3 C

1.4 C

1.6 C

4.6 C

0 W/m

0.00 mm

03:30

4.8 C

1004.1 hpa

79 %

14.5 km/h aus 117

19.3 km/h aus SE

1.4 C

1.4 C

1.6 C

4.6 C

0 W/m

0.00 mm

03:35

4.7 C

1004.1 hpa

79 %

16.1 km/h aus 115

19.3 km/h aus SE

1.4 C

1.1 C

1.2 C

4.6 C

0 W/m

0.00 mm

03:40

4.7 C

1004.1 hpa

79 %

16.1 km/h aus 115

19.3 km/h aus SE

1.3 C

1.0 C

1.2 C

4.5 C

0 W/m

0.00 mm

03:45

4.6 C

1004.1 hpa

79 %

16.1 km/h aus 117

20.9 km/h aus SE

1.3 C

0.9 C

1.1 C

4.4 C

0 W/m

0.00 mm

03:50

4.6 C

1004.1 hpa

79 %

17.7 km/h aus 117

22.5 km/h aus SE

1.2 C

0.6 C

0.8 C

4.4 C

0 W/m

0.00 mm

03:55

4.5 C

1004.1 hpa

80 %

16.1 km/h aus 117

19.3 km/h aus ESE

1.3 C

0.8 C

0.9 C

4.3 C

0 W/m

0.00 mm

04:00

4.4 C

1004.1 hpa

80 %

14.5 km/h aus 117

17.7 km/h aus SE

1.3 C

1.0 C

1.2 C

4.3 C

0 W/m

0.00 mm

04:05

4.4 C

1004.1 hpa

80 %

14.5 km/h aus 115

19.3 km/h aus SE

1.2 C

0.9 C

1.1 C

4.2 C

0 W/m

0.00 mm

04:10

4.3 C

1004.1 hpa

80 %

14.5 km/h aus 114

17.7 km/h aus SE

1.2 C

0.8 C

1.0 C

4.2 C

0 W/m

0.00 mm

04:15

4.3 C

1004.1 hpa

81 %

14.5 km/h aus 115

19.3 km/h aus SE

1.3 C

0.8 C

0.9 C

4.1 C

0 W/m

0.00 mm

04:20

4.2 C

1004.1 hpa

81 %

16.1 km/h aus 116

19.3 km/h aus SE

1.2 C

0.4 C

0.6 C

4.1 C

0 W/m

0.00 mm

04:25

4.2 C

1004.1 hpa

81 %

12.9 km/h aus 117

17.7 km/h aus SE

1.2 C

0.9 C

1.1 C

4.0 C

0 W/m

0.00 mm

04:30

4.1 C

1004.1 hpa

81 %

12.9 km/h aus 117

17.7 km/h aus SE

1.1 C

0.9 C

1.1 C

3.9 C

0 W/m

0.00 mm

04:35

4.1 C

1004.1 hpa

81 %

14.5 km/h aus 117

17.7 km/h aus SE

1.1 C

0.5 C

0.7 C

3.9 C

0 W/m

0.00 mm

04:40

4.0 C

1004.1 hpa

81 %

12.9 km/h aus 116

19.3 km/h aus SE

1.0 C

0.7 C

0.9 C

3.8 C

0 W/m

0.00 mm

04:45

3.9 C

1004.0 hpa

82 %

12.9 km/h aus 114

19.3 km/h aus ESE

1.1 C

0.7 C

0.8 C

3.8 C

0 W/m

0.00 mm

04:50

3.9 C

1004.0 hpa

82 %

14.5 km/h aus 116

19.3 km/h aus SE

1.1 C

0.3 C

0.5 C

3.7 C

0 W/m

0.00 mm

04:55

3.9 C

1004.0 hpa

82 %

16.1 km/h aus 117

20.9 km/h aus SE

1.1 C

0.1 C

0.3 C

3.8 C

0 W/m

0.00 mm

05:00

4.0 C

1003.7 hpa

83 %

17.7 km/h aus 117

24.1 km/h aus SE

1.4 C

0.0 C

0.1 C

3.9 C

0 W/m

0.00 mm

05:05

4.0 C

1003.7 hpa

83 %

19.3 km/h aus 117

24.1 km/h aus SE

1.4 C

-0.2 C

-0.1 C

3.9 C

0 W/m

0.00 mm

05:10

4.1 C

1003.7 hpa

83 %

17.7 km/h aus 116

24.1 km/h aus SE

1.4 C

0.1 C

0.2 C

3.9 C

0 W/m

0.00 mm

05:15

4.1 C

1003.8 hpa

83 %

17.7 km/h aus 115

20.9 km/h aus SE

1.4 C

0.1 C

0.2 C

3.9 C

0 W/m

0.00 mm

05:20

4.1 C

1003.8 hpa

84 %

14.5 km/h aus 114

19.3 km/h aus SE

1.6 C

0.6 C

0.7 C

3.9 C

0 W/m

0.00 mm

05:25

4.1 C

1003.8 hpa

84 %

16.1 km/h aus 117

17.7 km/h aus SE

1.6 C

0.3 C

0.4 C

3.9 C

0 W/m

0.00 mm

05:30

4.1 C

1003.6 hpa

84 %

14.5 km/h aus 117

19.3 km/h aus SE

1.6 C

0.7 C

0.8 C

4.0 C

0 W/m

0.00 mm

05:35

4.2 C

1003.6 hpa

84 %

14.5 km/h aus 116

19.3 km/h aus SE

1.7 C

0.7 C

0.8 C

4.1 C

0 W/m

0.00 mm

05:40

4.2 C

1003.6 hpa

85 %

12.9 km/h aus 116

16.1 km/h aus SE

1.9 C

1.1 C

1.2 C

4.1 C

0 W/m

0.00 mm

05:45

4.2 C

1003.4 hpa

85 %

12.9 km/h aus 117

17.7 km/h aus SE

1.9 C

1.1 C

1.2 C

4.1 C

0 W/m

0.00 mm

05:50

4.3 C

1003.4 hpa

85 %

14.5 km/h aus 116

19.3 km/h aus SE

2.0 C

0.8 C

0.9 C

4.2 C

0 W/m

0.00 mm

05:55

4.3 C

1003.4 hpa

86 %

14.5 km/h aus 114

19.3 km/h aus SE

2.2 C

0.9 C

1.0 C

4.2 C

0 W/m

0.00 mm

06:00

4.4 C

1003.5 hpa

86 %

14.5 km/h aus 116

19.3 km/h aus SE

2.3 C

1.0 C

1.1 C

4.3 C

0 W/m

0.00 mm

06:05

4.5 C

1003.5 hpa

86 %

14.5 km/h aus 117

19.3 km/h aus SE

2.4 C

1.1 C

1.2 C

4.4 C

0 W/m

0.00 mm

06:10

4.6 C

1003.5 hpa

87 %

16.1 km/h aus 117

19.3 km/h aus SE

2.6 C

0.9 C

1.0 C

4.4 C

0 W/m

0.00 mm

06:15

4.6 C

1003.5 hpa

87 %

14.5 km/h aus 117

17.7 km/h aus SE

2.6 C

1.3 C

1.4 C

4.5 C

0 W/m

0.00 mm

06:20

4.7 C

1003.5 hpa

87 %

12.9 km/h aus 115

17.7 km/h aus ESE

2.7 C

1.6 C

1.7 C

4.6 C

0 W/m

0.00 mm

06:25

4.7 C

1003.5 hpa

87 %

14.5 km/h aus 114

17.7 km/h aus ESE

2.7 C

1.4 C

1.5 C

4.6 C

0 W/m

0.00 mm

06:30

4.8 C

1003.2 hpa

87 %

12.9 km/h aus 115

17.7 km/h aus ESE

2.9 C

1.8 C

1.9 C

4.7 C

0 W/m

0.00 mm

06:35

4.9 C

1003.2 hpa

87 %

12.9 km/h aus 116

17.7 km/h aus SE

2.9 C

1.9 C

2.0 C

4.8 C

0 W/m

0.00 mm

06:40

5.0 C

1003.2 hpa

87 %

14.5 km/h aus 117

17.7 km/h aus SE

3.0 C

1.7 C

1.8 C

4.9 C

0 W/m

0.00 mm

06:45

5.1 C

1003.1 hpa

87 %

11.3 km/h aus 117

17.7 km/h aus ESE

3.1 C

2.3 C

2.4 C

4.9 C

0 W/m

0.00 mm

06:50

5.2 C

1003.1 hpa

87 %

12.9 km/h aus 117

17.7 km/h aus SE

3.2 C

2.3 C

2.3 C

5.1 C

0 W/m

0.00 mm

06:55

5.2 C

1003.1 hpa

87 %

12.9 km/h aus 114

17.7 km/h aus ESE

3.2 C

2.3 C

2.4 C

5.2 C

0 W/m

0.00 mm

07:00

5.3 C

1003.1 hpa

87 %

14.5 km/h aus 115

19.3 km/h aus SE

3.3 C

2.1 C

2.2 C

5.2 C

0 W/m

0.00 mm

07:05

5.3 C

1003.1 hpa

87 %

14.5 km/h aus 116

19.3 km/h aus SE

3.3 C

2.2 C

2.2 C

5.3 C

0 W/m

0.00 mm

07:10

5.3 C

1003.1 hpa

87 %

16.1 km/h aus 117

20.9 km/h aus SE

3.3 C

1.9 C

1.9 C

5.3 C

0 W/m

0.00 mm

07:15

5.4 C

1003.1 hpa

87 %

14.5 km/h aus 117

20.9 km/h aus ESE

3.4 C

2.2 C

2.3 C

5.3 C

0 W/m

0.00 mm

07:20

5.5 C

1003.1 hpa

88 %

17.7 km/h aus 117

22.5 km/h aus ESE

3.7 C

1.8 C

1.9 C

5.4 C

0 W/m

0.00 mm

07:25

5.6 C

1003.1 hpa

88 %

16.1 km/h aus 115

19.3 km/h aus ESE

3.7 C

2.2 C

2.2 C

5.5 C

0 W/m

0.00 mm

07:30

5.6 C

1003.1 hpa

87 %

16.1 km/h aus 114

19.3 km/h aus SE

3.6 C

2.2 C

2.3 C

5.6 C

0 W/m

0.00 mm

07:35

5.6 C

1003.1 hpa

87 %

16.1 km/h aus 116

19.3 km/h aus SE

3.6 C

2.2 C

2.3 C

5.6 C

0 W/m

0.00 mm

07:40

5.7 C

1003.1 hpa

87 %

16.1 km/h aus 116

19.3 km/h aus SE

3.7 C

2.3 C

2.3 C

5.6 C

0 W/m

0.00 mm

07:45

5.6 C

1003.1 hpa

87 %

14.5 km/h aus 117

17.7 km/h aus SE

3.6 C

2.5 C

2.6 C

5.6 C

0 W/m

0.00 mm

07:50

5.6 C

1003.1 hpa

87 %

14.5 km/h aus 116

17.7 km/h aus SE

3.6 C

2.5 C

2.6 C

5.6 C

0 W/m

0.00 mm

07:55

5.6 C

1003.1 hpa

87 %

14.5 km/h aus 117

17.7 km/h aus SE

3.6 C

2.5 C

2.6 C

5.6 C

0 W/m

0.00 mm

08:00

5.6 C

1003.1 hpa

88 %

17.7 km/h aus 115

20.9 km/h aus SE

3.8 C

1.9 C

2.0 C

5.6 C

0 W/m

0.00 mm

08:05

5.7 C

1003.1 hpa

88 %

16.1 km/h aus 115

19.3 km/h aus ESE

3.8 C

2.3 C

2.3 C

5.6 C

0 W/m

0.00 mm

08:10

5.7 C

1003.1 hpa

88 %

16.1 km/h aus 117

20.9 km/h aus SE

3.8 C

2.3 C

2.3 C

5.6 C

0 W/m

0.00 mm

08:15

5.7 C

1003.3 hpa

88 %

16.1 km/h aus 117

20.9 km/h aus SE

3.8 C

2.3 C

2.3 C

5.6 C

0 W/m

0.00 mm

08:20

5.7 C

1003.3 hpa

88 %

16.1 km/h aus 116

20.9 km/h aus SE

3.9 C

2.3 C

2.4 C

5.7 C

0 W/m

0.00 mm

08:25

5.8 C

1003.3 hpa

88 %

17.7 km/h aus 116

20.9 km/h aus SE

3.9 C

2.2 C

2.2 C

5.7 C

3 W/m

0.00 mm

08:30

5.8 C

1003.6 hpa

88 %

17.7 km/h aus 114

20.9 km/h aus SSE

4.0 C

2.2 C

2.3 C

5.8 C

6 W/m

0.00 mm

08:35

5.9 C

1003.6 hpa

88 %

14.5 km/h aus 115

19.3 km/h aus SE

4.1 C

2.9 C

2.9 C

5.9 C

8 W/m

0.00 mm

08:40

6.0 C

1003.6 hpa

88 %

16.1 km/h aus 117

22.5 km/h aus SSE

4.2 C

2.7 C

2.7 C

6.0 C

11 W/m

0.00 mm

08:45

6.0 C

1003.6 hpa

88 %

16.1 km/h aus 117

22.5 km/h aus SSE

4.2 C

2.7 C

2.7 C

6.0 C

15 W/m

0.00 mm

08:50

6.1 C

1003.6 hpa

88 %

14.5 km/h aus 116

17.7 km/h aus SE

4.2 C

3.1 C

3.1 C

6.1 C

19 W/m

0.00 mm

08:55

6.2 C

1003.6 hpa

88 %

14.5 km/h aus 116

19.3 km/h aus SE

4.3 C

3.2 C

3.2 C

6.2 C

24 W/m

0.00 mm

09:00

6.2 C

1003.6 hpa

88 %

14.5 km/h aus 115

17.7 km/h aus SSE

4.3 C

3.2 C

3.2 C

6.2 C

28 W/m

0.00 mm

09:05

6.2 C

1003.6 hpa

88 %

12.9 km/h aus 115

17.7 km/h aus SE

4.4 C

3.6 C

3.6 C

6.2 C

34 W/m

0.00 mm

09:10

6.2 C

1003.6 hpa

88 %

14.5 km/h aus 117

19.3 km/h aus SE

4.4 C

3.2 C

3.2 C

6.2 C

37 W/m

0.00 mm

09:15

6.3 C

1003.6 hpa

88 %

14.5 km/h aus 116

19.3 km/h aus SE

4.4 C

3.3 C

3.3 C

6.3 C

36 W/m

0.00 mm

09:20

6.3 C

1003.6 hpa

88 %

16.1 km/h aus 117

19.3 km/h aus SE

4.5 C

3.1 C

3.1 C

6.3 C

38 W/m

0.00 mm

09:25

6.4 C

1003.6 hpa

89 %

16.1 km/h aus 117

19.3 km/h aus SE

4.8 C

3.2 C

3.2 C

6.4 C

40 W/m

0.00 mm

09:30

6.6 C

1003.6 hpa

89 %

16.1 km/h aus 115

20.9 km/h aus SE

4.9 C

3.5 C

3.4 C

6.7 C

43 W/m

0.00 mm

09:35

6.8 C

1003.6 hpa

88 %

16.1 km/h aus 113

20.9 km/h aus SE

4.9 C

3.6 C

3.6 C

6.8 C

37 W/m

0.00 mm

09:40

6.8 C

1003.6 hpa

88 %

14.5 km/h aus 116

20.9 km/h aus ESE

5.0 C

4.0 C

4.0 C

6.8 C

40 W/m

0.00 mm

09:45

6.9 C

1003.5 hpa

88 %

12.9 km/h aus 117

20.9 km/h aus SE

5.1 C

4.4 C

4.4 C

6.9 C

40 W/m

0.00 mm

09:50

7.1 C

1003.5 hpa

88 %

16.1 km/h aus 117

19.3 km/h aus ESE

5.2 C

3.9 C

3.9 C

7.1 C

55 W/m

0.00 mm

09:55

7.1 C

1003.5 hpa

88 %

12.9 km/h aus 117

19.3 km/h aus ESE

5.3 C

4.7 C

4.7 C

7.1 C

61 W/m

0.00 mm

10:00

7.2 C

1003.6 hpa

88 %

12.9 km/h aus 115

20.9 km/h aus SE

5.4 C

4.8 C

4.8 C

7.2 C

64 W/m

0.00 mm

10:05

7.3 C

1003.6 hpa

87 %

12.9 km/h aus 113

20.9 km/h aus SE

5.3 C

4.8 C

4.8 C

7.3 C

79 W/m

0.00 mm

10:10

7.4 C

1003.6 hpa

87 %

12.9 km/h aus 117

19.3 km/h aus SE

5.4 C

5.0 C

5.0 C

7.4 C

82 W/m

0.00 mm

10:15

7.5 C

1003.6 hpa

87 %

12.9 km/h aus 116

17.7 km/h aus SE

5.5 C

5.1 C

5.1 C

7.5 C

71 W/m

0.00 mm

10:20

7.6 C

1003.6 hpa

87 %

11.3 km/h aus 115

16.1 km/h aus SE

5.5 C

5.5 C

5.5 C

7.6 C

69 W/m

0.00 mm

10:25

7.7 C

1003.6 hpa

87 %

9.7 km/h aus 117

14.5 km/h aus ESE

5.6 C

5.9 C

5.9 C

7.7 C

71 W/m

0.00 mm

10:30

7.7 C

1003.8 hpa

87 %

4.8 km/h aus 114

9.7 km/h aus E

5.7 C

7.3 C

7.3 C

7.7 C

62 W/m

0.00 mm

10:35

7.8 C

1003.8 hpa

86 %

4.8 km/h aus 115

8.0 km/h aus ESE

5.6 C

7.4 C

7.4 C

7.8 C

54 W/m

0.00 mm

10:40

7.9 C

1003.8 hpa

86 %

4.8 km/h aus 115

8.0 km/h aus E

5.7 C

7.4 C

7.4 C

7.9 C

60 W/m

0.00 mm

10:45

8.0 C

1003.6 hpa

86 %

4.8 km/h aus 117

8.0 km/h aus ENE

5.8 C

7.6 C

7.6 C

8.0 C

69 W/m

0.00 mm

10:50

8.1 C

1003.6 hpa

86 %

4.8 km/h aus 116

9.7 km/h aus ESE

5.9 C

7.7 C

7.7 C

8.1 C

73 W/m

0.00 mm

10:55

8.2 C

1003.6 hpa

86 %

6.4 km/h aus 116

11.3 km/h aus ESE

6.0 C

7.2 C

7.2 C

8.2 C

71 W/m

0.00 mm

11:00

8.2 C

1003.7 hpa

85 %

3.2 km/h aus 114

6.4 km/h aus E

5.8 C

8.2 C

8.2 C

8.2 C

64 W/m

0.00 mm

11:05

8.3 C

1003.7 hpa

85 %

3.2 km/h aus 116

6.4 km/h aus E

6.0 C

8.3 C

8.3 C

8.3 C

66 W/m

0.00 mm

11:10

8.4 C

1003.7 hpa

85 %

4.8 km/h aus 116

9.7 km/h aus ESE

6.0 C

8.0 C

8.0 C

8.4 C

64 W/m

0.00 mm

11:15

8.4 C

1003.6 hpa

84 %

3.2 km/h aus 118

6.4 km/h aus ESE

5.9 C

8.4 C

8.4 C

8.4 C

64 W/m

0.00 mm

11:20

8.5 C

1003.6 hpa

84 %

3.2 km/h aus 116

6.4 km/h aus ESE

5.9 C

8.5 C

8.5 C

8.5 C

56 W/m

0.00 mm

11:25

8.6 C

1003.6 hpa

84 %

4.8 km/h aus 116

9.7 km/h aus NNW

6.1 C

8.2 C

8.2 C

8.6 C

55 W/m

0.00 mm

11:30

8.7 C

1003.5 hpa

84 %

1.6 km/h aus 114

3.2 km/h aus NNW

6.1 C

8.7 C

8.7 C

8.7 C

48 W/m

0.00 mm

11:35

8.7 C

1003.5 hpa

84 %

3.2 km/h aus 117

6.4 km/h aus N

6.1 C

8.7 C

8.7 C

8.7 C

52 W/m

0.00 mm

11:40

8.7 C

1003.5 hpa

83 %

3.2 km/h aus 116

4.8 km/h aus NE

6.0 C

8.7 C

8.7 C

8.7 C

51 W/m

0.00 mm

11:45

8.8 C

1003.5 hpa

83 %

1.6 km/h aus 117

4.8 km/h aus NE

6.0 C

8.8 C

8.8 C

8.8 C

52 W/m

0.00 mm

11:50

8.8 C

1003.5 hpa

83 %

3.2 km/h aus 117

8.0 km/h aus E

6.0 C

8.8 C

8.8 C

8.8 C

53 W/m

0.00 mm

11:55

8.8 C

1003.5 hpa

83 %

4.8 km/h aus 113

9.7 km/h aus ESE

6.1 C

8.5 C

8.5 C

8.8 C

67 W/m

0.00 mm

12:00

8.9 C

1003.3 hpa

83 %

3.2 km/h aus 116

6.4 km/h aus ESE

6.2 C

8.9 C

8.9 C

8.9 C

77 W/m

0.00 mm

12:05

8.9 C

1003.3 hpa

83 %

4.8 km/h aus 117

6.4 km/h aus ESE

6.2 C

8.6 C

8.6 C

8.9 C

80 W/m

0.00 mm

12:10

8.9 C

1003.3 hpa

83 %

3.2 km/h aus 116

4.8 km/h aus ENE

6.2 C

8.9 C

8.9 C

8.9 C

83 W/m

0.00 mm

12:15

9.0 C

1003.1 hpa

83 %

1.6 km/h aus 116

3.2 km/h aus ENE

6.3 C

9.0 C

9.0 C

9.0 C

71 W/m

0.00 mm

12:20

9.1 C

1003.1 hpa

83 %

1.6 km/h aus 117

6.4 km/h aus ENE

6.3 C

9.1 C

9.1 C

9.1 C

57 W/m

0.00 mm

12:25

9.1 C

1003.1 hpa

83 %

4.8 km/h aus 113

6.4 km/h aus ENE

6.4 C

8.8 C

8.8 C

9.1 C

55 W/m

0.00 mm

12:30

9.2 C

1003.1 hpa

83 %

4.8 km/h aus 116

6.4 km/h aus E

6.4 C

8.9 C

8.9 C

9.2 C

54 W/m

0.00 mm

12:35

9.2 C

1003.1 hpa

83 %

6.4 km/h aus 117

11.3 km/h aus ESE

6.4 C

8.4 C

8.4 C

9.2 C

57 W/m

0.00 mm

12:40

9.2 C

1003.1 hpa

83 %

6.4 km/h aus 116

11.3 km/h aus SE

6.4 C

8.4 C

8.4 C

9.2 C

50 W/m

0.00 mm

12:45

9.2 C

1003.0 hpa

82 %

4.8 km/h aus 116

9.7 km/h aus SE

6.3 C

8.9 C

8.9 C

9.2 C

44 W/m

0.00 mm

12:50

9.2 C

1003.0 hpa

82 %

3.2 km/h aus 114

6.4 km/h aus SSE

6.3 C

9.2 C

9.2 C

9.2 C

49 W/m

0.00 mm

12:55

9.2 C

1003.0 hpa

82 %

4.8 km/h aus 115

8.0 km/h aus SE

6.3 C

8.9 C

8.9 C

9.2 C

49 W/m

0.00 mm

13:00

9.2 C

1002.7 hpa

83 %

6.4 km/h aus 117

9.7 km/h aus SE

6.5 C

8.5 C

8.5 C

9.2 C

46 W/m

0.00 mm

13:05

9.2 C

1002.7 hpa

83 %

6.4 km/h aus 116

11.3 km/h aus SE

6.5 C

8.5 C

8.5 C

9.2 C

48 W/m

0.00 mm

13:10

9.2 C

1002.7 hpa

83 %

4.8 km/h aus 117

9.7 km/h aus SE

6.5 C

8.9 C

8.9 C

9.2 C

56 W/m

0.00 mm

13:15

9.3 C

1002.5 hpa

83 %

6.4 km/h aus 114

9.7 km/h aus SSE

6.5 C

8.6 C

8.6 C

9.3 C

52 W/m

0.00 mm

13:20

9.3 C

1002.5 hpa

83 %

8.0 km/h aus 115

17.7 km/h aus SE

6.5 C

8.2 C

8.2 C

9.3 C

53 W/m

0.00 mm

13:25

9.4 C

1002.5 hpa

83 %

9.7 km/h aus 118

16.1 km/h aus SE

6.6 C

8.0 C

8.0 C

9.4 C

46 W/m

0.00 mm

13:30

9.4 C

1002.5 hpa

83 %

8.0 km/h aus 116

14.5 km/h aus SE

6.7 C

8.3 C

8.3 C

9.4 C

45 W/m

0.00 mm

13:35

9.4 C

1002.5 hpa

83 %

8.0 km/h aus 117

12.9 km/h aus SSE

6.7 C

8.3 C

8.3 C

9.4 C

41 W/m

0.00 mm

13:40

9.4 C

1002.5 hpa

83 %

12.9 km/h aus 116

20.9 km/h aus SE

6.7 C

7.4 C

7.4 C

9.4 C

56 W/m

0.00 mm

13:45

9.5 C

1002.6 hpa

83 %

12.9 km/h aus 113

17.7 km/h aus SSE

6.8 C

7.4 C

7.4 C

9.5 C

68 W/m

0.00 mm

13:50

9.5 C

1002.6 hpa

83 %

9.7 km/h aus 116

16.1 km/h aus SE

6.8 C

8.1 C

8.1 C

9.5 C

63 W/m

0.00 mm

13:55

9.4 C

1002.6 hpa

83 %

9.7 km/h aus 117

11.3 km/h aus SE

6.7 C

8.1 C

8.1 C

9.4 C

35 W/m

0.00 mm

14:00

9.4 C

1002.6 hpa

83 %

6.4 km/h aus 116

9.7 km/h aus SE

6.7 C

8.7 C

8.7 C

9.4 C

32 W/m

0.00 mm

14:05

9.4 C

1002.6 hpa

83 %

6.4 km/h aus 117

8.0 km/h aus SE

6.6 C

8.7 C

8.7 C

9.4 C

31 W/m

0.00 mm

14:10

9.3 C

1002.6 hpa

84 %

6.4 km/h aus 113

8.0 km/h aus SE

6.8 C

8.6 C

8.6 C

9.3 C

26 W/m

0.00 mm

14:15

9.3 C

1002.5 hpa

84 %

4.8 km/h aus 115

8.0 km/h aus ESE

6.7 C

9.0 C

9.0 C

9.3 C

26 W/m

0.00 mm

14:20

9.2 C

1002.5 hpa

84 %

6.4 km/h aus 117

9.7 km/h aus SE

6.7 C

8.5 C

8.5 C

9.2 C

27 W/m

0.00 mm

14:25

9.2 C

1002.5 hpa

84 %

4.8 km/h aus 117

8.0 km/h aus SE

6.6 C

8.9 C

8.9 C

9.2 C

20 W/m

0.00 mm

14:30

9.2 C

1002.5 hpa

84 %

6.4 km/h aus 118

8.0 km/h aus SE

6.6 C

8.4 C

8.4 C

9.2 C

25 W/m

0.00 mm

14:35

9.1 C

1002.5 hpa

85 %

6.4 km/h aus 117

8.0 km/h aus SE

6.7 C

8.3 C

8.3 C

9.1 C

23 W/m

0.00 mm

14:40

9.1 C

1002.5 hpa

85 %

6.4 km/h aus 113

9.7 km/h aus SE

6.7 C

8.3 C

8.3 C

9.1 C

23 W/m

0.00 mm

14:45

9.0 C

1002.5 hpa

85 %

4.8 km/h aus 115

6.4 km/h aus SE

6.6 C

8.7 C

8.7 C

9.0 C

27 W/m

0.00 mm

14:50

9.0 C

1002.5 hpa

85 %

4.8 km/h aus 116

6.4 km/h aus SE

6.6 C

8.7 C

8.7 C

9.0 C

30 W/m

0.00 mm

14:55

8.9 C

1002.5 hpa

86 %

4.8 km/h aus 117

6.4 km/h aus SE

6.7 C

8.6 C

8.6 C

8.9 C

24 W/m

0.00 mm

15:00

8.9 C

1002.5 hpa

86 %

4.8 km/h aus 116

6.4 km/h aus SE

6.7 C

8.6 C

8.6 C

8.9 C

19 W/m

0.00 mm

15:05

8.8 C

1002.5 hpa

86 %

4.8 km/h aus 115

6.4 km/h aus SE

6.6 C

8.5 C

8.5 C

8.8 C

18 W/m

0.00 mm

15:10

8.8 C

1002.5 hpa

86 %

4.8 km/h aus 113

6.4 km/h aus SE

6.6 C

8.5 C

8.5 C

8.8 C

15 W/m

0.00 mm

15:15

8.8 C

1002.6 hpa

86 %

4.8 km/h aus 116

6.4 km/h aus SE

6.6 C

8.4 C

8.4 C

8.8 C

12 W/m

0.00 mm

15:20

8.7 C

1002.6 hpa

86 %

4.8 km/h aus 116

6.4 km/h aus SE

6.5 C

8.4 C

8.4 C

8.7 C

10 W/m

0.00 mm

15:25

8.7 C

1002.6 hpa

86 %

6.4 km/h aus 117

8.0 km/h aus SE

6.5 C

7.8 C

7.8 C

8.7 C

7 W/m

0.00 mm

15:30

8.6 C

1002.8 hpa

86 %

6.4 km/h aus 115

8.0 km/h aus SE

6.3 C

7.7 C

7.7 C

8.6 C

6 W/m

0.00 mm

15:35

8.5 C

1002.8 hpa

86 %

6.4 km/h aus 115

8.0 km/h aus SE

6.3 C

7.7 C

7.7 C

8.5 C

7 W/m

0.00 mm

15:40

8.4 C

1002.8 hpa

86 %

6.4 km/h aus 115

8.0 km/h aus SE

6.2 C

7.6 C

7.6 C

8.4 C

5 W/m

0.00 mm

15:45

8.3 C

1002.5 hpa

87 %

8.0 km/h aus 117

11.3 km/h aus SE

6.3 C

7.1 C

7.1 C

8.4 C

5 W/m

0.00 mm

15:50

8.3 C

1002.5 hpa

87 %

8.0 km/h aus 117

11.3 km/h aus ESE

6.3 C

7.1 C

7.1 C

8.4 C

0 W/m

0.00 mm

15:55

8.3 C

1002.5 hpa

87 %

8.0 km/h aus 117

11.3 km/h aus SE

6.2 C

7.1 C

7.0 C

8.3 C

0 W/m

0.00 mm

16:00

8.3 C

1002.5 hpa

87 %

6.4 km/h aus 117

9.7 km/h aus SE

6.2 C

7.4 C

7.4 C

8.3 C

0 W/m

0.00 mm

16:05

8.2 C

1002.5 hpa

88 %

8.0 km/h aus 114

9.7 km/h aus SE

6.4 C

7.0 C

6.9 C

8.3 C

0 W/m

0.00 mm

16:10

8.2 C

1002.5 hpa

88 %

8.0 km/h aus 116

9.7 km/h aus SE

6.4 C

7.0 C

6.9 C

8.3 C

0 W/m

0.00 mm

16:15

8.2 C

1002.5 hpa

88 %

8.0 km/h aus 117

9.7 km/h aus SE

6.3 C

6.9 C

6.8 C

8.2 C

0 W/m

0.00 mm

16:20

8.1 C

1002.5 hpa

88 %

8.0 km/h aus 117

9.7 km/h aus SE

6.2 C

6.8 C

6.7 C

8.1 C

0 W/m

0.00 mm

16:25

8.0 C

1002.5 hpa

88 %

6.4 km/h aus 117

8.0 km/h aus SE

6.1 C

7.1 C

7.1 C

8.1 C

0 W/m

0.00 mm

16:30

8.0 C

1002.5 hpa

88 %

8.0 km/h aus 115

9.7 km/h aus SE

6.1 C

6.7 C

6.7 C

8.1 C

0 W/m

0.00 mm

16:35

7.9 C

1002.5 hpa

88 %

8.0 km/h aus 115

9.7 km/h aus SE

6.1 C

6.7 C

6.6 C

8.0 C

0 W/m

0.00 mm

16:40

7.9 C

1002.5 hpa

88 %

8.0 km/h aus 117

9.7 km/h aus SE

6.0 C

6.6 C

6.5 C

7.9 C

0 W/m

0.00 mm

16:45

7.9 C

1002.3 hpa

89 %

8.0 km/h aus 115

9.7 km/h aus SE

6.2 C

6.6 C

6.5 C

7.9 C

0 W/m

0.00 mm

16:50

7.9 C

1002.3 hpa

89 %

9.7 km/h aus 117

11.3 km/h aus SE

6.2 C

6.2 C

6.2 C

7.9 C

0 W/m

0.00 mm

16:55

7.9 C

1002.3 hpa

89 %

8.0 km/h aus 116

11.3 km/h aus SE

6.2 C

6.6 C

6.5 C

7.9 C

0 W/m

0.00 mm

17:00

7.9 C

1002.5 hpa

89 %

9.7 km/h aus 114

14.5 km/h aus SE

6.2 C

6.2 C

6.2 C

7.9 C

0 W/m

0.00 mm

17:05

7.9 C

1002.5 hpa

89 %

8.0 km/h aus 114

11.3 km/h aus SSE

6.2 C

6.7 C

6.6 C

8.0 C

0 W/m

0.00 mm

17:10

8.0 C

1002.5 hpa

89 %

6.4 km/h aus 117

11.3 km/h aus SSE

6.3 C

7.1 C

7.1 C

8.1 C

0 W/m

0.00 mm

17:15

8.0 C

1002.5 hpa

89 %

6.4 km/h aus 117

8.0 km/h aus SSE

6.3 C

7.1 C

7.1 C

8.1 C

0 W/m

0.00 mm

17:20

8.0 C

1002.5 hpa

89 %

6.4 km/h aus 117

8.0 km/h aus SSE

6.3 C

7.1 C

7.1 C

8.1 C

0 W/m

0.00 mm

17:25

8.0 C

1002.5 hpa

89 %

6.4 km/h aus 117

9.7 km/h aus SSE

6.3 C

7.1 C

7.1 C

8.1 C

0 W/m

0.00 mm

17:30

8.0 C

1002.5 hpa

89 %

6.4 km/h aus 115

9.7 km/h aus SSE

6.3 C

7.1 C

7.1 C

8.1 C

0 W/m

0.00 mm

17:35

8.0 C

1002.5 hpa

89 %

8.0 km/h aus 113

11.3 km/h aus SE

6.3 C

6.7 C

6.7 C

8.1 C

0 W/m

0.00 mm

17:40

8.0 C

1002.5 hpa

89 %

9.7 km/h aus 118

11.3 km/h aus SE

6.3 C

6.4 C

6.3 C

8.1 C

0 W/m

0.00 mm

17:45

8.0 C

1002.5 hpa

89 %

8.0 km/h aus 117

9.7 km/h aus SE

6.3 C

6.7 C

6.7 C

8.1 C

0 W/m

0.00 mm

17:50

8.0 C

1002.5 hpa

89 %

8.0 km/h aus 115

11.3 km/h aus SE

6.3 C

6.7 C

6.7 C

8.1 C

0 W/m

0.00 mm

17:55

8.0 C

1002.5 hpa

89 %

8.0 km/h aus 117

11.3 km/h aus SE

6.3 C

6.7 C

6.7 C

8.1 C

0 W/m

0.00 mm

18:00

8.0 C

1002.2 hpa

89 %

6.4 km/h aus 113

11.3 km/h aus SE

6.3 C

7.1 C

7.1 C

8.1 C

0 W/m

0.00 mm

18:05

8.0 C

1002.2 hpa

89 %

6.4 km/h aus 114

9.7 km/h aus ESE

6.3 C

7.1 C

7.1 C

8.1 C

0 W/m

0.00 mm

18:10

8.0 C

1002.2 hpa

90 %

8.0 km/h aus 117

9.7 km/h aus SE

6.5 C

6.7 C

6.7 C

8.1 C

0 W/m

0.00 mm

18:15

8.0 C

1002.3 hpa

90 %

8.0 km/h aus 117

9.7 km/h aus SE

6.5 C

6.7 C

6.7 C

8.1 C

0 W/m

0.00 mm

18:20

8.0 C

1002.3 hpa

90 %

8.0 km/h aus 117

11.3 km/h aus SE

6.5 C

6.7 C

6.7 C

8.1 C

0 W/m

0.00 mm

18:25

8.0 C

1002.3 hpa

90 %

9.7 km/h aus 116

16.1 km/h aus ESE

6.5 C

6.4 C

6.3 C

8.1 C

0 W/m

0.00 mm

18:30

8.1 C

1002.0 hpa

90 %

9.7 km/h aus 113

14.5 km/h aus SE

6.5 C

6.4 C

6.4 C

8.1 C

0 W/m

0.00 mm

18:35

8.1 C

1002.0 hpa

90 %

8.0 km/h aus 115

11.3 km/h aus ESE

6.5 C

6.8 C

6.7 C

8.1 C

0 W/m

0.00 mm

18:40

8.1 C

1002.0 hpa

90 %

8.0 km/h aus 117

11.3 km/h aus ESE

6.5 C

6.8 C

6.7 C

8.1 C

0 W/m

0.00 mm

18:45

8.1 C

1002.0 hpa

90 %

8.0 km/h aus 118

9.7 km/h aus ESE

6.6 C

6.9 C

6.8 C

8.2 C

0 W/m

0.00 mm

18:50

8.1 C

1002.0 hpa

90 %

6.4 km/h aus 117

9.7 km/h aus ESE

6.6 C

7.3 C

7.2 C

8.2 C

0 W/m

0.00 mm

18:55

8.1 C

1002.0 hpa

90 %

6.4 km/h aus 115

9.7 km/h aus ESE

6.6 C

7.3 C

7.2 C

8.2 C

0 W/m

0.00 mm

19:00

8.1 C

1002.0 hpa

90 %

6.4 km/h aus 114

9.7 km/h aus ESE

6.6 C

7.3 C

7.2 C

8.2 C

0 W/m

0.00 mm

19:05

8.1 C

1002.0 hpa

90 %

6.4 km/h aus 115

9.7 km/h aus ESE

6.6 C

7.3 C

7.2 C

8.2 C

0 W/m

0.00 mm

19:10

8.1 C

1002.0 hpa

90 %

6.4 km/h aus 116

11.3 km/h aus SE

6.6 C

7.3 C

7.2 C

8.2 C

0 W/m

0.00 mm

19:15

8.1 C

1002.0 hpa

90 %

8.0 km/h aus 116

9.7 km/h aus ESE

6.6 C

6.9 C

6.8 C

8.2 C

0 W/m

0.00 mm

19:20

8.2 C

1002.0 hpa

90 %

6.4 km/h aus 117

11.3 km/h aus ESE

6.6 C

7.3 C

7.2 C

8.3 C

0 W/m

0.00 mm

19:25

8.2 C

1002.0 hpa

90 %

4.8 km/h aus 115

8.0 km/h aus ESE

6.6 C

7.9 C

7.8 C

8.3 C

0 W/m

0.00 mm

19:30

8.2 C

1002.0 hpa

90 %

4.8 km/h aus 114

8.0 km/h aus ESE

6.6 C

7.9 C

7.8 C

8.3 C

0 W/m

0.00 mm

19:35

8.2 C

1002.0 hpa

90 %

4.8 km/h aus 116

8.0 km/h aus ESE

6.6 C

7.9 C

7.8 C

8.3 C

0 W/m

0.00 mm

19:40

8.2 C

1002.0 hpa

90 %

4.8 km/h aus 117

11.3 km/h aus ESE

6.7 C

7.9 C

7.8 C

8.3 C

0 W/m

0.00 mm

19:45

8.3 C

1002.0 hpa

90 %

4.8 km/h aus 117

9.7 km/h aus E

6.7 C

8.0 C

7.9 C

8.4 C

0 W/m

0.00 mm

19:50

8.3 C

1002.0 hpa

90 %

1.6 km/h aus 117

6.4 km/h aus E

6.8 C

8.4 C

8.3 C

8.4 C

0 W/m

0.00 mm

19:55

8.3 C

1002.0 hpa

90 %

4.8 km/h aus 114

8.0 km/h aus E

6.7 C

8.0 C

7.9 C

8.4 C

0 W/m

0.00 mm

20:00

8.3 C

1001.9 hpa

90 %

4.8 km/h aus 115

6.4 km/h aus E

6.7 C

8.0 C

7.9 C

8.4 C

0 W/m

0.00 mm

20:05

8.2 C

1001.9 hpa

90 %

1.6 km/h aus 117

4.8 km/h aus E

6.7 C

8.3 C

8.2 C

8.3 C

0 W/m

0.00 mm

20:10

8.2 C

1001.9 hpa

90 %

1.6 km/h aus 116

3.2 km/h aus E

6.6 C

8.3 C

8.2 C

8.3 C

0 W/m

0.00 mm

20:15

8.1 C

1001.7 hpa

89 %

3.2 km/h aus 117

4.8 km/h aus E

6.4 C

8.1 C

8.1 C

8.1 C

0 W/m

0.00 mm

20:20

7.9 C

1001.7 hpa

89 %

3.2 km/h aus 115

4.8 km/h aus E

6.2 C

8.0 C

7.9 C

8.0 C

0 W/m

0.00 mm

20:25

7.9 C

1001.7 hpa

89 %

3.2 km/h aus 114

6.4 km/h aus E

6.2 C

7.9 C

7.9 C

7.9 C

0 W/m

0.00 mm

20:30

7.8 C

1001.5 hpa

90 %

4.8 km/h aus 114

6.4 km/h aus E

6.2 C

7.4 C

7.3 C

7.8 C

0 W/m

0.00 mm

20:35

7.7 C

1001.5 hpa

89 %

4.8 km/h aus 116

9.7 km/h aus SE

6.0 C

7.3 C

7.3 C

7.8 C

0 W/m

0.00 mm

20:40

7.6 C

1001.5 hpa

90 %

6.4 km/h aus 116

9.7 km/h aus ESE

6.1 C

6.7 C

6.6 C

7.7 C

0 W/m

0.00 mm

20:45

7.6 C

1001.2 hpa

90 %

8.0 km/h aus 116

11.3 km/h aus SE

6.0 C

6.2 C

6.1 C

7.6 C

0 W/m

0.00 mm

20:50

7.6 C

1001.2 hpa

90 %

8.0 km/h aus 116

17.7 km/h aus ESE

6.1 C

6.2 C

6.2 C

7.7 C

0 W/m

0.00 mm

20:55

7.7 C

1001.2 hpa

91 %

9.7 km/h aus 115

14.5 km/h aus SE

6.3 C

6.1 C

6.0 C

7.8 C

0 W/m

0.00 mm

21:00

7.8 C

1001.0 hpa

91 %

12.9 km/h aus 116

19.3 km/h aus ESE

6.5 C

5.6 C

5.5 C

7.9 C

0 W/m

0.00 mm

21:05

7.9 C

1001.0 hpa

91 %

11.3 km/h aus 116

16.1 km/h aus SE

6.6 C

6.1 C

6.0 C

8.1 C

0 W/m

0.00 mm

21:10

7.9 C

1001.0 hpa

91 %

9.7 km/h aus 117

16.1 km/h aus SE

6.6 C

6.4 C

6.3 C

8.1 C

0 W/m

0.00 mm

21:15

7.9 C

1001.0 hpa

91 %

8.0 km/h aus 117

17.7 km/h aus SE

6.6 C

6.7 C

6.6 C

8.1 C

0 W/m

0.00 mm

21:20

7.9 C

1001.0 hpa

91 %

9.7 km/h aus 115

17.7 km/h aus ESE

6.6 C

6.4 C

6.3 C

8.1 C

0 W/m

0.00 mm

21:25

7.9 C

1001.0 hpa

91 %

9.7 km/h aus 115

17.7 km/h aus SE

6.5 C

6.3 C

6.2 C

8.0 C

0 W/m

0.00 mm

21:30

7.9 C

1000.8 hpa

91 %

9.7 km/h aus 116

16.1 km/h aus ESE

6.5 C

6.3 C

6.2 C

8.0 C

0 W/m

0.00 mm

21:35

7.9 C

1000.8 hpa

92 %

9.7 km/h aus 116

16.1 km/h aus ESE

6.7 C

6.3 C

6.2 C

8.0 C

0 W/m

0.00 mm

21:40

7.9 C

1000.8 hpa

92 %

11.3 km/h aus 117

17.7 km/h aus ESE

6.7 C

6.0 C

5.9 C

8.0 C

0 W/m

0.00 mm

21:45

7.9 C

1000.9 hpa

92 %

12.9 km/h aus 117

19.3 km/h aus SE

6.7 C

5.7 C

5.6 C

8.0 C

0 W/m

0.00 mm

21:50

7.9 C

1000.9 hpa

92 %

9.7 km/h aus 114

16.1 km/h aus ESE

6.7 C

6.4 C

6.3 C

8.1 C

0 W/m

0.00 mm

21:55

7.9 C

1000.9 hpa

92 %

8.0 km/h aus 113

11.3 km/h aus SE

6.7 C

6.6 C

6.5 C

8.0 C

0 W/m

0.00 mm

22:00

7.8 C

1000.7 hpa

92 %

6.4 km/h aus 117

11.3 km/h aus SE

6.6 C

6.9 C

6.8 C

7.9 C

0 W/m

0.00 mm

22:05

7.8 C

1000.7 hpa

91 %

6.4 km/h aus 117

8.0 km/h aus ESE

6.4 C

6.8 C

6.8 C

7.8 C

0 W/m

0.00 mm

22:10

7.7 C

1000.7 hpa

91 %

4.8 km/h aus 117

8.0 km/h aus SE

6.3 C

7.3 C

7.3 C

7.8 C

0 W/m

0.00 mm

22:15

7.7 C

1000.5 hpa

91 %

3.2 km/h aus 117

6.4 km/h aus SE

6.3 C

7.7 C

7.7 C

7.7 C

0 W/m

0.00 mm

22:20

7.6 C

1000.5 hpa

91 %

1.6 km/h aus 115

6.4 km/h aus SE

6.2 C

7.7 C

7.6 C

7.7 C

0 W/m

0.00 mm

22:25

7.6 C

1000.5 hpa

91 %

3.2 km/h aus 114

8.0 km/h aus SSE

6.2 C

7.6 C

7.6 C

7.6 C

0 W/m

0.00 mm

22:30

7.5 C

1000.5 hpa

91 %

3.2 km/h aus 117

8.0 km/h aus ESE

6.1 C

7.6 C

7.5 C

7.6 C

0 W/m

0.00 mm

22:35

7.4 C

1000.5 hpa

91 %

3.2 km/h aus 117

6.4 km/h aus ESE

6.1 C

7.5 C

7.4 C

7.5 C

0 W/m

0.00 mm

22:40

7.4 C

1000.5 hpa

91 %

4.8 km/h aus 117

9.7 km/h aus SE

6.0 C

6.9 C

6.9 C

7.4 C

0 W/m

0.00 mm

22:45

7.4 C

1000.5 hpa

92 %

8.0 km/h aus 114

12.9 km/h aus ESE

6.2 C

6.1 C

6.0 C

7.6 C

0 W/m

0.00 mm

22:50

7.5 C

1000.5 hpa

92 %

8.0 km/h aus 115

16.1 km/h aus ESE

6.3 C

6.2 C

6.1 C

7.6 C

0 W/m

0.00 mm

22:55

7.6 C

1000.5 hpa

92 %

9.7 km/h aus 114

17.7 km/h aus SE

6.4 C

5.9 C

5.8 C

7.7 C

0 W/m

0.00 mm

23:00

7.7 C

1000.4 hpa

92 %

11.3 km/h aus 116

17.7 km/h aus SE

6.5 C

5.8 C

5.7 C

7.8 C

0 W/m

0.00 mm

23:05

7.8 C

1000.4 hpa

92 %

9.7 km/h aus 117

16.1 km/h aus SE

6.6 C

6.2 C

6.1 C

7.9 C

0 W/m

0.00 mm

23:10

8.0 C

1000.4 hpa

92 %

9.7 km/h aus 116

17.7 km/h aus SE

6.8 C

6.4 C

6.3 C

8.1 C

0 W/m

0.00 mm

23:15

8.1 C

1000.4 hpa

92 %

9.7 km/h aus 117

16.1 km/h aus ESE

6.8 C

6.5 C

6.4 C

8.2 C

0 W/m

0.00 mm

23:20

8.1 C

1000.4 hpa

92 %

8.0 km/h aus 114

11.3 km/h aus ESE

6.9 C

6.9 C

6.8 C

8.2 C

0 W/m

0.00 mm

23:25

8.2 C

1000.4 hpa

92 %

9.7 km/h aus 115

17.7 km/h aus ESE

6.9 C

6.6 C

6.5 C

8.3 C

0 W/m

0.00 mm

23:30

8.3 C

1000.1 hpa

92 %

11.3 km/h aus 116

19.3 km/h aus ESE

7.1 C

6.5 C

6.4 C

8.4 C

0 W/m

0.00 mm

23:35

8.4 C

1000.1 hpa

92 %

12.9 km/h aus 116

22.5 km/h aus ESE

7.2 C

6.2 C

6.1 C

8.5 C

0 W/m

0.00 mm

23:40

8.4 C

1000.1 hpa

92 %

11.3 km/h aus 117

19.3 km/h aus ESE

7.2 C

6.7 C

6.6 C

8.6 C

0 W/m

0.00 mm

23:45

8.4 C

1000.1 hpa

92 %

11.3 km/h aus 117

17.7 km/h aus SE

7.2 C

6.7 C

6.6 C

8.6 C

0 W/m

0.00 mm

23:50

8.6 C

1000.1 hpa

92 %

12.9 km/h aus 115

17.7 km/h aus ESE

7.3 C

6.5 C

6.3 C

8.7 C

0 W/m

0.00 mm

23:55

8.6 C

1000.1 hpa

91 %

9.7 km/h aus 115

16.1 km/h aus SE

7.2 C

7.2 C

7.1 C

8.7 C

0 W/m

0.00 mm